[[{"header":{"parameterUnit":"m.s-1","parameterCategory":1,"la1":30.2991,"la2":30.254,"lo1":-89.0895,"lo2":-89.0444,"dy":0.0017,"dx":0.0017,"nx":28,"ny":28,"refTime":"2024-06-15T03:00:00:Z","depth":0,"parameterNumber":2,"parameterNumberName":"U-component_of_WINDS"},"data":[0,0,0,0,0,0,0,0,0,0,0,0,0,0,0,0,0,0,0,0,0,0,0,0,0,0,0,0,0,0,0,0,0,0,0,0,0,0,0,0,0,0,0,0,0,0,0,0,0,0,0,0,0,0,0,0,0,0,0.5213,0.5213,0,0.5181,0.518,0.518,0.517,0.517,0.5171,0.5171,0.5136,0.5134,0.5133,0,0,0,0,0,0,0,0,0,0,0,0,0,0.5268,0.5267,0.5213,0.5213,0.5213,0.5181,0.518,0.518,0.517,0.517,0.5171,0.5171,0.5136,0.5135,0.5133,0,0,0,0,0,0,0,0,0,0,0,0,0,0.524,0.5266,0.5214,0.5204,0.5203,0.5181,0.518,0.518,0.517,0.517,0.5171,0.5171,0.5136,0.5135,0.5133,0.5117,0,0,0.5128,0.5127,0,0,0,0,0,0,0,0,0.5242,0.5238,0.5206,0.5205,0.5203,0.518,0.5186,0.5159,0.517,0.5183,0.5171,0.5171,0.515,0.5147,0.514,0.5116,0.5114,0.5128,0.5127,0.5126,0.5126,0,0,0,0,0,0,0,0.5244,0.524,0.52,0.5205,0.5204,0.5201,0.5198,0.5181,0.5165,0.5182,0.5181,0.5177,0.5149,0.5142,0.5139,0.5114,0.5128,0.5126,0.5125,0.5125,0.5076,0.5076,0,0,0,0,0,0,0.5247,0.5241,0.5201,0.5199,0.5224,0.52,0.5196,0.5187,0.5165,0.5162,0.5177,0.5177,0.5145,0.5141,0.5138,0.5119,0.5126,0.5125,0.5124,0.5076,0.5076,0.5076,0,0,0,0,0,0,0.5249,0.5244,0.5203,0.522,0.5215,0.5199,0.5189,0.5186,0.5179,0.5162,0.5159,0.5172,0.5145,0.5141,0.5123,0.5118,0.5124,0.5122,0.5077,0.5076,0.5076,0.508,0,0,0,0,0,0,0.525,0.5244,0.5238,0.522,0.5214,0.5188,0.5189,0.5185,0.5176,0.5176,0.5157,0.5154,0.5145,0.5126,0.5121,0.5115,0.5121,0.5077,0.5077,0.5076,0.508,0.508,0.5079,0,0,0,0,0,0.5252,0.524,0.5238,0.5233,0.5206,0.5188,0.5184,0.5174,0.5176,0.517,0.5159,0.5154,0.5119,0.5124,0.5119,0.5113,0.5077,0.5077,0.5076,0.5081,0.508,0.5079,0,0,0,0,0,0,0.5257,0.5237,0.5235,0.5217,0.5204,0.5186,0.5178,0.5174,0.516,0.516,0.5148,0.5144,0.5128,0.5118,0.5124,0.5097,0.5098,0.5097,0.5103,0.5103,0.5102,0.5104,0.512,0,0,0,0,0,0.5256,0.5243,0.5227,0.5212,0.5207,0.5194,0.5185,0.5179,0.5165,0.516,0.5148,0.5134,0.512,0.5111,0.5097,0.508,0.5075,0.5073,0.5072,0.5072,0.507,0.5061,0.506,0.5074,0.5074,0.5074,0,0,0.5253,0.5241,0.5234,0.5213,0.5203,0.519,0.5189,0.5175,0.5165,0.5157,0.514,0.5131,0.5116,0.5098,0.509,0.509,0.5066,0.5071,0.5071,0.507,0.506,0.5059,0.5058,0.5073,0.5073,0.5073,0,0,0.5242,0.5232,0.5219,0.5209,0.5194,0.5186,0.5183,0.5166,0.516,0.5143,0.5137,0.5126,0.5102,0.5091,0.5082,0.507,0.5065,0.5066,0.5063,0.5054,0.5053,0.5052,0.5047,0.5046,0.5064,0.5064,0.5064,0,0.5241,0.5221,0.5213,0.52,0.5191,0.5185,0.5172,0.5162,0.5143,0.5137,0.5138,0.5109,0.5098,0.5078,0.5075,0.5069,0.5065,0.5067,0.5054,0.5053,0.5052,0.5047,0.5046,0.5064,0.5064,0.5064,0.5064,0,0.522,0.5207,0.5199,0.5181,0.5172,0.5159,0.5149,0.514,0.5135,0.5127,0.5111,0.5098,0.5081,0.5077,0.5071,0.5057,0.5057,0.5056,0.5057,0.5051,0.5046,0.5045,0.5065,0.5065,0.5065,0.5065,0,0,0.5209,0.5189,0.5186,0.5178,0.5162,0.5152,0.5139,0.5124,0.5117,0.5105,0.5094,0.5075,0.5074,0.5065,0.5058,0.5051,0.5042,0.5051,0.505,0.5049,0.5026,0.5026,0.5024,0.504,0.504,0.5039,0.5027,0,0.5195,0.5172,0.5165,0.5146,0.5134,0.5129,0.5118,0.5107,0.51,0.5089,0.5081,0.5067,0.5068,0.5062,0.5054,0.5045,0.5037,0.5046,0.5029,0.5029,0.5032,0.5022,0.5022,0.5011,0.5025,0.5025,0.5025,0,0.5175,0.5164,0.5144,0.5131,0.5125,0.5116,0.5102,0.5092,0.508,0.5075,0.5066,0.5061,0.5047,0.505,0.5032,0.5038,0.5031,0.5026,0.5025,0.5022,0.5026,0.5019,0.5007,0.5005,0.5022,0.5022,0.5023,0,0.5169,0.5148,0.5134,0.5128,0.5112,0.5106,0.5099,0.5087,0.5079,0.5068,0.5062,0.5049,0.5042,0.5032,0.5024,0.5027,0.5007,0.5009,0.5002,0.5002,0.4997,0.4997,0.4984,0.4994,0.4994,0.4994,0.4994,0,0.5153,0.5141,0.5131,0.5122,0.5109,0.5101,0.5088,0.5081,0.5071,0.5061,0.5056,0.5047,0.5037,0.5026,0.502,0.5006,0.5003,0.4999,0.4997,0.4998,0.4999,0.4993,0.4993,0.4993,0.4994,0.4994,0.4994,0,0.5142,0.5135,0.5119,0.5107,0.5103,0.5094,0.5083,0.5075,0.5068,0.5055,0.5052,0.5042,0.5029,0.502,0.5004,0.5,0.4985,0.4983,0.4989,0.4988,0.4982,0.4982,0.4963,0.496,0.4973,0.4973,0.4973,0,0.5133,0.5123,0.5111,0.5104,0.5097,0.5086,0.5079,0.5072,0.5064,0.5051,0.5044,0.5032,0.5021,0.5001,0.4992,0.498,0.4978,0.4972,0.4975,0.4978,0.4977,0.4977,0.4977,0.4971,0.4971,0.4971,0.4971,0,0.5116,0.5113,0.5103,0.5092,0.5083,0.5074,0.5064,0.5059,0.5051,0.5042,0.503,0.5022,0.5006,0.4994,0.4981,0.4974,0.4971,0.497,0.4968,0.4969,0.4972,0.497,0.4986,0.497,0.497,0.497,0.497,0.497,0.5105,0.5097,0.5087,0.5076,0.5069,0.506,0.5052,0.5046,0.5035,0.5022,0.5019,0.5006,0.4996,0.4979,0.4972,0.4962,0.4963,0.4959,0.4958,0.4957,0.4957,0.4975,0.496,0.496,0.496,0.496,0.496,0,0.5087,0.5081,0.5071,0.5059,0.5051,0.505,0.5041,0.5033,0.5022,0.5014,0.5004,0.4991,0.4979,0.497,0.4958,0.4952,0.4951,0.4949,0.4949,0.4948,0.4958,0.4961,0.4951,0.4951,0.4951,0.4951,0.4951,0.4951,0.5077,0.5064,0.506,0.5044,0.5038,0.5026,0.5021,0.5014,0.5007,0.4992,0.4983,0.4978,0.4969,0.4957,0.4947,0.4945,0.494,0.4939,0.4937,0.4946,0.4947,0.4948,0.495,0.4939,0.4939,0.4927,0.4927,0.4927]},{"header":{"parameterUnit":"m.s-1","parameterCategory":1,"la1":30.2991,"la2":30.254,"lo1":-89.0895,"lo2":-89.0444,"dy":0.0017,"dx":0.0017,"nx":28,"ny":28,"refTime":"2024-06-15T03:00:00:Z","depth":0,"parameterNumber":3,"parameterNumberName":"V-component_of_WINDS"},"data":[0,0,0,0,0,0,0,0,0,0,0,0,0,0,0,0,0,0,0,0,0,0,0,0,0,0,0,0,0,0,0,0,0,0,0,0,0,0,0,0,0,0,0,0,0,0,0,0,0,0,0,0,0,0,0,0,0,0,-2.1277,-2.1278,0,-2.1307,-2.1307,-2.1308,-2.127,-2.1269,-2.1268,-2.1266,-2.1296,-2.1298,-2.13,0,0,0,0,0,0,0,0,0,0,0,0,0,-2.1187,-2.1189,-2.1277,-2.1278,-2.1278,-2.1307,-2.1307,-2.1308,-2.1271,-2.1269,-2.1267,-2.1266,-2.1295,-2.1297,-2.13,0,0,0,0,0,0,0,0,0,0,0,0,0,-2.1223,-2.119,-2.1277,-2.1263,-2.1262,-2.1307,-2.1307,-2.1308,-2.1271,-2.1269,-2.1267,-2.1265,-2.1294,-2.1297,-2.13,-2.136,0,0,-2.131,-2.1311,0,0,0,0,0,0,0,0,-2.1221,-2.1226,-2.1265,-2.1264,-2.1263,-2.1283,-2.1286,-2.1325,-2.1272,-2.1268,-2.1266,-2.1264,-2.1293,-2.1296,-2.1306,-2.1362,-2.1363,-2.131,-2.1312,-2.1313,-2.1314,0,0,0,0,0,0,0,-2.1218,-2.1225,-2.1289,-2.1265,-2.1264,-2.1255,-2.1258,-2.1294,-2.1291,-2.1268,-2.1265,-2.1269,-2.1292,-2.1303,-2.1307,-2.1363,-2.131,-2.1313,-2.1314,-2.1316,-2.147,-2.1472,0,0,0,0,0,0,-2.1218,-2.1223,-2.1288,-2.129,-2.1236,-2.1258,-2.1261,-2.1279,-2.1291,-2.1291,-2.1271,-2.1267,-2.1299,-2.1303,-2.1307,-2.1379,-2.1313,-2.1316,-2.1318,-2.1467,-2.147,-2.1473,0,0,0,0,0,0,-2.1216,-2.1224,-2.1287,-2.1256,-2.1263,-2.1262,-2.1282,-2.128,-2.1291,-2.1293,-2.1293,-2.1283,-2.1298,-2.1303,-2.1348,-2.1379,-2.1317,-2.132,-2.1465,-2.1468,-2.1471,-2.1522,0,0,0,0,0,0,-2.1213,-2.1223,-2.1246,-2.1256,-2.1265,-2.1327,-2.1284,-2.1282,-2.1297,-2.1293,-2.1304,-2.1304,-2.1296,-2.1343,-2.1351,-2.1382,-2.1323,-2.1462,-2.1466,-2.147,-2.1517,-2.1526,-2.1534,0,0,0,0,0,-2.121,-2.1259,-2.1248,-2.1256,-2.1294,-2.1329,-2.1334,-2.1324,-2.13,-2.1323,-2.1324,-2.1304,-2.1375,-2.1348,-2.1356,-2.1389,-2.146,-2.1465,-2.147,-2.1513,-2.1525,-2.1534,0,0,0,0,0,0,-2.1252,-2.126,-2.1248,-2.1301,-2.1315,-2.1322,-2.1351,-2.1336,-2.1356,-2.1351,-2.1338,-2.1341,-2.1389,-2.1393,-2.1364,-2.1448,-2.1413,-2.142,-2.1443,-2.1454,-2.1462,-2.146,-2.1325,0,0,0,0,0,-2.1268,-2.1296,-2.1301,-2.1348,-2.1355,-2.1352,-2.1367,-2.1359,-2.1372,-2.1377,-2.1382,-2.1395,-2.1421,-2.1437,-2.1461,-2.1518,-2.152,-2.1544,-2.1553,-2.156,-2.1566,-2.1597,-2.1608,-2.1489,-2.1489,-2.1489,0,0,-2.13,-2.1308,-2.1326,-2.1357,-2.1366,-2.1395,-2.1357,-2.139,-2.1412,-2.1382,-2.1425,-2.1429,-2.1443,-2.1494,-2.1516,-2.1499,-2.1599,-2.1566,-2.1572,-2.1574,-2.1603,-2.1614,-2.1624,-2.1493,-2.1492,-2.1491,0,0,-2.1374,-2.1382,-2.1422,-2.1433,-2.1448,-2.1446,-2.1455,-2.1466,-2.1467,-2.151,-2.1489,-2.1514,-2.1558,-2.1569,-2.158,-2.1659,-2.1641,-2.1667,-2.1711,-2.1741,-2.175,-2.1759,-2.1787,-2.1797,-2.1673,-2.1673,-2.1673,0,-2.1412,-2.1456,-2.1445,-2.1479,-2.1493,-2.1469,-2.1509,-2.1519,-2.1541,-2.1551,-2.1532,-2.1586,-2.1594,-2.1648,-2.1667,-2.1677,-2.1687,-2.1665,-2.175,-2.1758,-2.1766,-2.1793,-2.1803,-2.1676,-2.1675,-2.1675,-2.1675,0,-2.1502,-2.1532,-2.1563,-2.1585,-2.1603,-2.164,-2.1635,-2.1653,-2.1643,-2.1643,-2.1687,-2.1695,-2.172,-2.1732,-2.1723,-2.1785,-2.1773,-2.1752,-2.1717,-2.178,-2.1805,-2.1815,-2.168,-2.1679,-2.1678,-2.1677,0,0,-2.1602,-2.1619,-2.163,-2.164,-2.1655,-2.1679,-2.1715,-2.174,-2.1756,-2.1772,-2.1802,-2.184,-2.1821,-2.1833,-2.1825,-2.1851,-2.1913,-2.1827,-2.1827,-2.1843,-2.1983,-2.1999,-2.2011,-2.1902,-2.1904,-2.1905,-2.1981,0,-2.1677,-2.174,-2.1731,-2.1792,-2.182,-2.1797,-2.1829,-2.1841,-2.1842,-2.1866,-2.1867,-2.1894,-2.1866,-2.1874,-2.1899,-2.1901,-2.1941,-2.1895,-2.193,-2.1931,-2.1927,-2.2024,-2.2041,-2.2112,-2.1991,-2.1993,-2.1994,0,-2.1771,-2.1792,-2.1855,-2.1866,-2.1878,-2.1906,-2.1929,-2.1952,-2.1966,-2.1964,-2.1979,-2.1966,-2.2002,-2.1966,-2.2016,-2.1984,-2.1998,-2.2001,-2.2003,-2.2006,-2.1966,-2.203,-2.2135,-2.2146,-2.2009,-2.2008,-2.2007,0,-2.1839,-2.1882,-2.1925,-2.1935,-2.1949,-2.1969,-2.1976,-2.1988,-2.2003,-2.2023,-2.2033,-2.2056,-2.2068,-2.2087,-2.208,-2.2054,-2.2131,-2.2094,-2.2131,-2.2131,-2.2148,-2.2147,-2.2257,-2.2157,-2.2156,-2.2156,-2.2156,0,-2.1923,-2.1963,-2.1956,-2.1983,-2.2027,-2.2017,-2.206,-2.2064,-2.2075,-2.2102,-2.2084,-2.2109,-2.2099,-2.2124,-2.2119,-2.2161,-2.2167,-2.2167,-2.2165,-2.2169,-2.2169,-2.2177,-2.2172,-2.2159,-2.2158,-2.2158,-2.2157,0,-2.2006,-2.2003,-2.2049,-2.2059,-2.2062,-2.2094,-2.2102,-2.2127,-2.2127,-2.2161,-2.2169,-2.2168,-2.2197,-2.2192,-2.2223,-2.222,-2.2273,-2.2264,-2.2268,-2.2266,-2.2303,-2.23,-2.2423,-2.2439,-2.2328,-2.2329,-2.233,0,-2.2059,-2.209,-2.2103,-2.212,-2.2128,-2.2156,-2.2172,-2.2163,-2.218,-2.2199,-2.2222,-2.2249,-2.227,-2.2317,-2.2319,-2.2343,-2.2335,-2.2377,-2.2339,-2.2342,-2.2336,-2.2335,-2.2338,-2.2384,-2.2386,-2.2387,-2.2388,0,-2.2155,-2.2153,-2.2177,-2.2201,-2.222,-2.2238,-2.2255,-2.227,-2.2262,-2.2283,-2.2312,-2.2329,-2.2361,-2.2388,-2.2411,-2.2417,-2.2402,-2.24,-2.2409,-2.2413,-2.2414,-2.2415,-2.2289,-2.2397,-2.2396,-2.2395,-2.2395,-2.2394,-2.2225,-2.2251,-2.2265,-2.2292,-2.2304,-2.232,-2.2344,-2.2347,-2.2371,-2.2397,-2.2391,-2.2424,-2.2437,-2.2466,-2.2475,-2.2501,-2.2485,-2.2499,-2.2503,-2.2507,-2.2511,-2.241,-2.2505,-2.2504,-2.2504,-2.2504,-2.2504,0,-2.2321,-2.2328,-2.2354,-2.2377,-2.2399,-2.2383,-2.24,-2.2419,-2.2449,-2.2463,-2.2484,-2.2518,-2.2544,-2.2549,-2.2574,-2.2594,-2.2587,-2.26,-2.2599,-2.2601,-2.2523,-2.2513,-2.2605,-2.2605,-2.2605,-2.2605,-2.2605,-2.2605,-2.2373,-2.2416,-2.2415,-2.2464,-2.2471,-2.2504,-2.2515,-2.253,-2.2541,-2.258,-2.2602,-2.2604,-2.2615,-2.264,-2.2664,-2.2664,-2.2674,-2.2691,-2.2689,-2.2616,-2.2606,-2.2597,-2.2586,-2.2693,-2.2693,-2.2764,-2.2764,-2.2765]}]]